Location: Invercargill
(46.4000°S, 168.3500°E)
Time: 04:31:56
(UTC+13:00)

SeaSat 1 - Pass Details

Date: 24 January 2019
Orbit: 745 x 747 km, 108.0° (Epoch: 17 October)

Event Time Altitude Azimuth Distance (km) Brightness Sun altitude
Rises 23:34:51 0° 145° (SE) 3,228 6.0 -16.8°
Reaches altitude 10° 23:37:20 10° 135° (SE) 2,295 5.1 -17.0°
Maximum altitude 23:41:53 34° 70° (ENE) 1,219 3.1 -17.5°
Enters shadow 23:42:57 31° 44° (NE) 1,299 3.1 -17.6°
